Home > Time Zones > World Clock > Weather > China > Wuhan > Past weeks

Flag for China Weather past 2 weeks in Wuhan, Hubei, China

Now
39 °F

Light rain. Fog.


Feels Like: 35 °F
Forecast: 37 / 40 °F
Wind: 6 mph from Northeast

Location: Wuhan Airport

Current Time: Jan 27, 2015 at 11:59:19 AM

Latest Report: Jan 27, 2015 at 11:00 AM


Visibility: 2 mi

Pressure: 30.36 "Hg

Humidity: 87%

Dew point: 36 °F

Location of WuhanLocation

Historic Weather in Wuhan — Graph

°F

Wuhan temperature yesterday

Maximum temperature yesterday: 45 °F (at 2:00 PM)
Minimum temperature yesterday: 41 °F (at 12:00 AM)
Average temperature yesterday: 43 °F

Past Weeks' High & Low Weather Summary

 TemperatureHumidityPressure
High61 °F (Jan 24, 1:00 PM)100% (Jan 15, 12:00 AM)30.54 "Hg (Jan 15, 12:00 AM)
Low32 °F (Jan 22, 5:00 AM)18% (Jan 21, 4:00 PM)29.98 "Hg (Jan 24, 5:00 AM)
Average46 °F65%30.28 "Hg
* Reported Jan 12 10:00 AM — Jan 27 10:00 AM, Wuhan, Weather by CustomWeather, © 2014

Note: Actual official high and low records may vary slightly from our data, if they occured in-between our weather recording intervals... More about our weather records

Advertising

Wuhan weather history for previous 24 hours

 ConditionsComfort  
Time TempWeatherWind HumidityBarometerVisibility
10:00 AM
Jan 27
39 °FLight rain. Fog.8 mph93%30.36 "Hg1 mi
9:00 AM39 °FLight rain. Fog.6 mph93%30.33 "Hg1 mi
8:00 AM39 °FLight rain. Fog.8 mph93%30.33 "Hg1 mi
7:00 AM41 °FLight rain. Fog.8 mph87%30.33 "Hg1 mi
6:00 AM41 °FLight rain. Fog.6 mph93%30.30 "Hg1 mi
5:00 AM41 °FLight rain. Fog.6 mph93%30.30 "Hg1 mi
4:00 AM41 °FLight rain. Fog.6 mph93%30.30 "Hg1 mi
3:00 AM43 °FLight rain. Fog.8 mph87%30.30 "Hg1 mi
2:00 AM43 °FFog.8 mph81%30.27 "Hg2 mi
1:00 AM45 °FFog.8 mph76%30.27 "Hg2 mi
12:00 AM45 °FFog.6 mph81%30.27 "Hg2 mi
11:00 PM
Jan 26
45 °FLight rain. Fog.6 mph81%30.27 "Hg1 mi
10:00 PM45 °FFog.8 mph81%30.24 "Hg1 mi
9:00 PM45 °FFog.6 mph87%30.24 "Hg1 mi
8:00 PM45 °FFog.3 mph81%30.21 "Hg1 mi
7:00 PM45 °FFog.3 mph81%30.18 "Hg1 mi
6:00 PM45 °FLight rain. Fog.6 mph87%30.18 "Hg1 mi
5:00 PM45 °FFog.1 mph81%30.18 "Hg1 mi
4:00 PM45 °FFog.No wind81%30.15 "Hg1 mi
3:00 PM45 °FFog.1 mph81%30.15 "Hg1 mi
2:00 PM45 °FFog.No wind81%30.18 "Hg1 mi
1:00 PM43 °FFog.1 mph87%30.21 "Hg1 mi
12:00 PM43 °FLight rain. Fog.1 mph87%30.24 "Hg1 mi
11:00 AM43 °FFog.1 mph81%30.27 "Hg1 mi
Weather by CustomWeather, © 2014

See weather overviewHow to use our weather pages